This demonstration page uses our WeatherBlox Daily Observations layout. Learn more.

Left ArrowRight Arrow

39.92423, -83.80882

Hourly Observations for January 7, 2018

Temp ( °F °C ) Dew Point ( °F °C ) Humidity (%) Winds ( mph kmh ) Pressure ( in mb ) Visibility ( mi km ) Precip ( " mm )
12:56 am 00:56 Clear -7 -21.7 -11 -23.9 82 82 SE 6 9 30.58 1036 10 16 N/A
1:56 am 01:56 Clear -4 -20 -6 -21.1 91 91 SE 7 11 30.55 1034 10 16 N/A
2:56 am 02:56 Clear 1 -17.2 -2 -18.9 87 87 SE 8 13 30.56 1035 10 16 N/A
3:56 am 03:56 Clear 2 -16.7 -1 -18.3 88 88 SE 8 13 30.55 1035 10 16 N/A
4:56 am 04:56 Clear 4 -15.6 1 -17.2 88 88 SSE 8 13 30.55 1035 10 16 N/A
5:56 am 05:56 Clear 7 -13.9 2 -16.7 80 80 SSE 9 15 30.54 1034 10 16 N/A
6:56 am 06:56 Clear 8 -13.3 2 -16.7 76 76 SSE 10 17 30.52 1033 10 16 N/A
7:56 am 07:56 Clear 8 -13.3 2 -16.7 76 76 SSE 9 15 30.52 1033 10 16 N/A
8:56 am 08:56 Partly Cloudy 10 -12.2 2 -16.7 69 69 SSE 12 19 30.49 1033 10 16 N/A
10:56 am 10:56 Cloudy 15 -9.4 4 -15.6 61 61 S 10 17 30.47 1032 10 16 N/A
11:56 am 11:56 Mostly Cloudy 21 -6.1 6 -14.4 52 52 S 12 19 30.41 1030 10 16 N/A
12:56 pm 12:56 Cloudy 22 -5.6 7 -13.9 52 52 S 9 15 30.37 1028 10 16 N/A
1:56 pm 13:56 Mostly Cloudy 25 -3.9 9 -12.8 50 50 S 9 15 30.32 1027 10 16 N/A
2:56 pm 14:56 Mostly Cloudy 26 -3.3 11 -11.7 53 53 S 8 13 30.29 1026 10 16 N/A
3:56 pm 15:56 Partly Cloudy 27 -2.8 11 -11.7 51 51 S 7 11 30.27 1025 10 16 N/A
4:56 pm 16:56 Partly Cloudy 27 -2.8 12 -11.1 53 53 S 9 15 30.27 1025 10 16 N/A
5:56 pm 17:56 Mostly Cloudy 27 -2.8 13 -10.6 55 55 S 10 17 30.26 1025 10 16 N/A
6:56 pm 18:56 Mostly Cloudy 28 -2.2 14 -10 56 56 S 10 17 30.25 1024 10 16 N/A
7:56 pm 19:56 Partly Cloudy 30 -1.1 14 -10 51 51 S 8 13 30.24 1024 10 16 N/A
8:56 pm 20:56 Mostly Cloudy 30 -1.1 15 -9.4 54 54 S 8 13 30.20 1023 10 16 N/A
9:56 pm 21:56 Cloudy 31 -0.6 15 -9.4 52 52 S 8 13 30.18 1022 10 16 N/A
10:56 pm 22:56 Cloudy 32 undefined 15 -9.4 50 50 S 9 15 30.15 1021 10 16 N/A
11:56 pm 23:56 Cloudy with Light Wintry Mix 32 undefined 19 -7.2 59 59 S 8 13 30.11 1020 10 16 N/A

Powered by AerisWeather